Regional Weather Roundup
Issued by NWS

Home | Current Version | Previous Version | Graphics & Text | Print | Product List | Glossary On
Versions: 1 2 3 4 5 6 7 8 9 10 11 12 13 14 15 16 17 18 19 20 21 22 23 24 25 26 27 28 29 30 31 32 33 34 35 36 37 38 39 40 41 42 43 44 45 46 47 48 49 50
346
ASUS43 KLMK 051910
RWRKY
KENTUCKY REGIONAL WEATHER ROUNDUP
NATIONAL WEATHER SERVICE LOUISVILLE KY
200 PM EST MON DEC 05 2016

NOTE "FAIR" INDICATES FEW OR NO CLOUDS BELOW 12,000 FEET
WITH NO SIGNIFICANT WEATHER AND/OR OBSTRUCTIONS TO VISIBILITY.

KYZ001>023-026-027-061>063-070>075-052000-
WESTERN AND SOUTH CENTRAL KENTUCKY

CITY           SKY/WX    TMP DP  RH WIND       PRES   REMARKS
PADUCAH        CLOUDY    43  35  73 E10       29.99F
HENDERSON      CLOUDY    43  32  65 SE8       30.02F
OWENSBORO      PTSUNNY   43  35  73 E9        30.03F
HOPKINSVILLE   CLOUDY    41  38  87 E8        30.01F
BOWLING GREEN  CLOUDY    44  38  79 NE9       30.02F
GLASGOW        CLOUDY    42  40  92 NE8       30.01F
$$

KYZ024-025-028>034-038-045-046-053-052000-
NORTH CENTRAL KENTUCKY

CITY           SKY/WX    TMP DP  RH WIND       PRES   REMARKS
LOUISVILLE/SDF CLOUDY    44  32  62 E7        30.04F
LOUISVILLE/LOU CLOUDY    43  33  68 SE9       30.05F
FORT KNOX      CLOUDY    43  34  70 E7        30.01F
$$

KYZ035>037-039>044-047>052-055>060-089>105-052000-
NORTHEAST KENTUCKY

CITY           SKY/WX    TMP DP  RH WIND       PRES   REMARKS
LEXINGTON      CLOUDY    44  34  67 E7        30.04F
COVINGTON      CLOUDY    43  33  68 SE7       30.06F
FRANKFORT      CLOUDY    44  33  65 E8        30.03F
$$

KYZ054-064>069-076>088-106>120-052000-
SOUTHEAST KENTUCKY

CITY           SKY/WX    TMP DP  RH WIND       PRES   REMARKS
JACKSON        CLOUDY    48  37  65 CALM      30.02F
LONDON         CLOUDY    48  38  68 NE5       30.01F
SOMERSET       CLOUDY    45  37  76 NE3       30.02F
MIDDLESBORO    MOSUNNY   50  43  78 CALM      30.00F
MONTICELLO     CLOUDY    47  41  80 VRB5      30.03F
$$





USA.gov is the U.S. government's official web portal to all federal, state and local government web resources and services.